星链-11083 [DTC] (STARLINK-11083 [DTC] )

导读 | 星芒AI

STARLINK-11083 [DTC] 是 SpaceX Starlink 项目中的一颗低轨通信卫星,属于第 5 批组网卫星(DTC 指代部署任务编号)。该卫星于 2021 年发射,运行在约 550 公里的轨道高度,旨在为全球用户提供高速互联网服务。它采用先进的星载通信技术,具备激光链路和相控阵天线,支持高效数据传输。作为 Starlink 卫星群的一部分,它有助于扩大覆盖范围并提升网络性能,尤其在偏远地区。

基本信息
目录编号:
59424
目录名称:
STARLINK-11083
国际标识:
2024-065D
轨道中心:
EARTH
卫星名称:
星链-11083 [DTC]
卫星全名:
星链-11083 [DTC] (STARLINK-11083 [DTC] )
卫星状态:
在轨 (已飞行615 天)
发射日期:
2024-04-07 UTC
国别 :
美国 (US)
星等 :
--
轨道信息
数据来源 国际轨道数据 AOE轨道数据
星历时间 2025-12-13T02:59:38+0800
14小时前
查看轨道信息
2025-12-08T13:00:00+0800
5天前
查看轨道信息
半长轴 6737.782km 6737.829km
偏心率 0.0000637 0.0001466
轨道倾角 53.158° 53.159°
近地点辐角 356.530° 50.686°
升交点赤经 162.345° 184.937°
平近点角 3.571° 315.615°
近地点 359.217km 358.706km
远地点 360.077km 360.682km
周期 91.735分钟 91.736分钟
每日圈数 15.697386 15.697224
详细信息
固有亮度:
5
最大亮度:
0.5
卫星平台:
Starlink v2.0 mini
覆盖范围:
全球
运营商:
太空探索技术公司
运营商所在国:
美国
制造商(研发单位):
太空探索技术公司
制造商所在国:
美国
使用方式:
暂无
卫星简介
星链(Starlink)计划是由太空探索技术公司(SpaceX)提出的一个巨型低轨卫星互联网星座项目,计划在2019年至2024年间在太空搭建由约1.2万颗卫星组成的“星链”网络,其中1584颗将部署在地球上空550千米处的近地轨道,并从2020年开始工作。该卫星仍在工作。
2D轨道图
3D轨道图
轨道高度分析图
轨道倾角分析图
轨道综合分析图
查看轨道综合分析图